Temp
-10 -10 -10 -10 -10 -10 -10 -10 -10 -10 -10 -10 -10 -10 -10 -10 -10 -10 -9 -9 -9 -9 -9 -9 -10 -10 -10 -10 -10 -10 -10 -10 -10 -10 -10 -11 -11 -12 -12 -13 -14 -14 -15 -16 -16 -15 -15
-10 -10 -10 -10 -10 -10 -10 -10 -9 -10 -10 -10 -10 -10 -10 -10 -10 -10 -10 -10 -10 -10 -10 -9 -9 -10 -10 -10 -10 -10 -10 -10 -10 -10 -10 -11 -11 -12 -12 -13 -14 -15 -16 -16 -16 -16 -15
-10 -10 -10 -10 -10 -10 -10 -10 -10 -10 -10 -10 -11 -10 -10 -10 -10 -10 -10 -9 -10 -10 -10 -10 -10 -10 -10 -10 -10 -10 -10 -10 -10 -10 -11 -11 -11 -12 -13 -14 -14 -15 -16 -17 -17 -16 -16
-10 -10 -10 -10 -10 -10 -10 -10 -10 -10 -10 -10 -10 -10 -10 -10 -10 -10 -10 -10 -10 -9 -10 -10 -10 -10 -10 -10 -10 -10 -10 -10 -10 -10 -11 -11 -12 -12 -12 -14 -14 -15 -16 -17 -17 -16 -16
-10 -10 -10 -10 -10 -10 -10 -10 -10 -10 -10 -10 -10 -11 -10 -10 -10 -10 -11 -10 -10 -10 -10 -10 -10 -10 -10 -10 -10 -11 -10 -11 -11 -11 -11 -11 -12 -12 -13 -13 -14 -15 -17 -17 -17 -17 -16
-11 -11 -10 -10 -10 -10 -10 -10 -11 -11 -10 -10 -10 -10 -10 -10 -10 -10 -11 -10 -10 -10 -10 -10 -10 -10 -10 -10 -10 -11 -11 -11 -11 -11 -11 -11 -12 -12 -12 -13 -14 -15 -16 -17 -17 -17 -16
-11 -11 -11 -11 -11 -10 -10 -10 -10 -10 -10 -10 -11 -11 -11 -11 -11 -11 -11 -11 -10 -10 -10 -10 -10 -11 -11 -11 -11 -11 -11 -11 -11 -11 -11 -11 -12 -12 -13 -13 -14 -15 -16 -17 -17 -17 -17
-11 -11 -12 -11 -11 -11 -11 -11 -11 -11 -11 -11 -11 -11 -11 -11 -11 -11 -11 -11 -10 -10 -10 -10 -10 -11 -11 -11 -11 -11 -11 -11 -11 -11 -11 -11 -12 -13 -13 -13 -14 -15 -16 -17 -17 -17 -17
-12 -12 -12 -12 -12 -12 -11 -11 -11 -11 -11 -11 -11 -11 -11 -11 -11 -11 -11 -11 -11 -10 -10 -11 -11 -11 -11 -11 -11 -11 -11 -11 -11 -11 -12 -12 -12 -13 -13 -13 -14 -14 -16 -17 -17 -17 -17
-11 -12 -12 -12 -12 -12 -12 -12 -11 -11 -11 -12 -12 -12 -11 -11 -11 -12 -11 -11 -11 -11 -10 -11 -11 -11 -11 -11 -11 -12 -12 -12 -12 -12 -12 -12 -12 -13 -14 -14 -14 -15 -16 -17 -17 -17 -17
-12 -12 -12 -12 -12 -12 -12 -12 -12 -12 -12 -12 -12 -12 -12 -12 -12 -12 -12 -12 -12 -11 -11 -11 -11 -11 -11 -11 -12 -12 -12 -12 -12 -12 -12 -12 -13 -13 -14 -14 -14 -15 -15 -16 -17 -17 -17
-12 -12 -12 -12 -12 -12 -12 -12 -12 -12 -12 -12 -12 -12 -13 -13 -12 -12 -12 -12 -12 -12 -11 -11 -11 -11 -11 -12 -12 -12 -12 -12 -12 -12 -12 -12 -13 -14 -14 -14 -14 -15 -15 -16 -17 -17 -17
-12 -12 -12 -12 -12 -12 -12 -13 -13 -13 -13 -13 -13 -13 -13 -13 -13 -13 -12 -12 -12 -12 -12 -12 -12 -12 -12 -12 -12 -12 -12 -12 -13 -12 -12 -12 -13 -14 -14 -14 -15 -15 -16 -16 -16 -17 -17
-13 -13 -12 -13 -13 -13 -13 -13 -13 -13 -13 -13 -13 -13 -13 -14 -13 -13 -13 -12 -12 -11 -13 -12 -13 -12 -12 -12 -12 -13 -13 -13 -13 -13 -13 -13 -13 -14 -14 -15 -15 -15 -16 -16 -16 -16 -17
-15 -15 -14 -14 -13 -13 -13 -13 -14 -14 -14 -14 -14 -14 -13 -14 -13 -14 -13 -12 -12 -12 -13 -13 -13 -13 -12 -12 -12 -13 -13 -13 -13 -13 -14 -14 -14 -14 -15 -15 -15 -16 -16 -17 -17 -17 -17
-15 -15 -15 -14 -14 -14 -14 -14 -14 -14 -14 -14 -14 -14 -14 -14 -14 -14 -14 -12 -12 -13 -14 -13 -13 -13 -13 -13 -13 -13 -13 -13 -14 -14 -14 -15 -15 -15 -16 -16 -16 -16 -16 -17 -18 -18 -17
-14 -14 -14 -14 -14 -14 -15 -15 -15 -14 -14 -14 -14 -14 -14 -14 -14 -14 -13 -13 -13 -14 -14 -14 -14 -14 -14 -14 -14 -14 -13 -14 -14 -14 -15 -15 -16 -16 -16 -17 -17 -17 -17 -17 -18 -18 -18
-14 -14 -14 -14 -14 -14 -15 -16 -15 -15 -15 -14 -14 -14 -15 -14 -14 -14 -14 -14 -14 -14 -14 -14 -14 -14 -14 -14 -14 -14 -14 -15 -15 -15 -15 -16 -16 -17 -17 -17 -17 -17 -18 -18 -18 -18 -18
-15 -15 -14 -14 -15 -14 -15 -15 -16 -15 -15 -16 -15 -15 -16 -15 -15 -15 -15 -14 -14 -14 -14 -14 -14 -14 -14 -14 -15 -14 -14 -15 -16 -16 -16 -17 -16 -17 -17 -17 -18 -18 -18 -18 -18 -18 -18
-16 -15 -15 -15 -15 -15 -15 -15 -15 -15 -15 -16 -17 -17 -17 -16 -15 -15 -15 -15 -15 -15 -15 -15 -15 -15 -15 -15 -15 -15 -15 -16 -16 -16 -17 -17 -17 -18 -18 -18 -18 -19 -19 -19 -19 -18 -19
-16 -16 -16 -15 -15 -15 -15 -16 -16 -16 -16 -16 -16 -17 -17 -16 -15 -15 -16 -15 -15 -15 -15 -15 -15 -15 -15 -16 -16 -16 -16 -16 -17 -17 -18 -18 -18 -19 -19 -19 -19 -19 -19 -19 -19 -20 -19
-17 -17 -16 -16 -16 -16 -16 -16 -16 -17 -16 -16 -16 -17 -17 -17 -17 -16 -16 -16 -16 -16 -15 -15 -15 -16 -16 -16 -16 -16 -16 -17 -17 -18 -18 -18 -19 -19 -19 -20 -19 -19 -19 -19 -20 -20 -19
-17 -17 -17 -17 -17 -17 -17 -17 -17 -17 -17 -17 -17 -17 -18 -17 -17 -17 -17 -17 -17 -17 -17 -16 -16 -16 -16 -16 -16 -16 -17 -17 -17 -18 -19 -19 -20 -20 -20 -20 -20 -19 -20 -20 -20 -20 -20
-19 -18 -18 -17 -18 -18 -18 -18 -18 -18 -18 -17 -17 -18 -19 -17 -18 -18 -17 -17 -18 -18 -17 -17 -17 -17 -17 -17 -17 -17 -17 -18 -18 -19 -19 -19 -20 -21 -21 -21 -21 -20 -20 -20 -21 -21 -20
-20 -19 -19 -19 -19 -19 -19 -19 -18 -18 -18 -18 -18 -18 -19 -19 -18 -18 -18 -18 -18 -18 -18 -18 -18 -18 -18 -18 -18 -18 -18 -19 -19 -19 -20 -20 -21 -21 -21 -21 -21 -21 -21 -20 -21 -21 -21
-21 -20 -20 -20 -20 -19 -19 -19 -19 -19 -19 -19 -19 -19 -20 -20 -19 -19 -19 -19 -19 -18 -18 -18 -18 -18 -19 -19 -19 -19 -19 -19 -20 -20 -21 -21 -22 -22 -22 -22 -22 -21 -21 -21 -21 -21 -21
-21 -21 -21 -20 -20 -20 -20 -20 -19 -20 -19 -20 -20 -21 -20 -20 -20 -20 -20 -20 -19 -19 -19 -19 -19 -19 -19 -19 -19 -19 -20 -20 -20 -21 -21 -22 -22 -22 -23 -22 -22 -22 -22 -22 -22 -22 -22
-22 -22 -21 -21 -21 -20 -20 -20 -20 -20 -20 -20 -20 -21 -21 -20 -20 -20 -20 -20 -20 -19 -19 -20 -20 -20 -20 -20 -20 -20 -20 -21 -21 -22 -22 -22 -23 -23 -23 -23 -22 -22 -22 -23 -23 -23 -23
-23 -23 -22 -22 -22 -21 -21 -21 -21 -20 -21 -21 -21 -22 -21 -22 -21 -21 -21 -20 -20 -20 -20 -20 -20 -20 -20 -21 -21 -21 -21 -22 -22 -22 -23 -23 -22 -23 -23 -23 -23 -23 -23 -23 -23 -23 -23
Height
5839 5839 5839 5839 5839 5839 5838 5838 5837 5836 5836 5835 5833 5831 5830 5829 5827 5825 5823 5821 5818 5816 5814 5811 5808 5805 5803 5799 5795 5790 5787 5783 5779 5775 5770 5766 5763 5759 5755 5751 5747 5744 5742 5741 5741 5741 5742
5835 5834 5834 5834 5834 5835 5834 5833 5833 5832 5831 5830 5830 5829 5827 5825 5824 5822 5820 5818 5815 5811 5809 5807 5804 5801 5799 5795 5791 5787 5784 5780 5776 5770 5766 5762 5758 5754 5749 5746 5742 5739 5737 5737 5737 5738 5738
5830 5830 5830 5830 5830 5829 5828 5828 5828 5827 5826 5825 5824 5824 5822 5820 5820 5818 5815 5812 5809 5807 5804 5802 5799 5796 5794 5792 5786 5783 5780 5776 5771 5767 5762 5757 5753 5749 5744 5741 5738 5735 5733 5733 5734 5734 5734
5823 5824 5824 5824 5824 5824 5824 5824 5823 5823 5821 5819 5819 5818 5817 5815 5814 5812 5811 5807 5804 5802 5799 5797 5794 5791 5789 5786 5783 5779 5775 5771 5767 5763 5757 5752 5748 5745 5739 5737 5733 5730 5729 5729 5729 5730 5731
5818 5819 5819 5818 5817 5816 5816 5817 5817 5816 5815 5815 5814 5812 5811 5809 5808 5805 5804 5802 5800 5797 5794 5791 5790 5787 5784 5781 5779 5775 5769 5765 5762 5759 5754 5748 5744 5740 5736 5732 5729 5726 5724 5725 5726 5727 5728
5810 5810 5811 5812 5811 5811 5810 5810 5809 5808 5808 5807 5806 5806 5805 5803 5802 5799 5796 5795 5793 5793 5790 5786 5785 5783 5780 5777 5773 5770 5766 5761 5757 5754 5750 5745 5739 5735 5732 5727 5725 5722 5720 5721 5723 5724 5725
5802 5802 5802 5803 5804 5804 5804 5803 5801 5801 5800 5800 5799 5798 5798 5797 5794 5792 5791 5789 5788 5786 5785 5782 5780 5777 5774 5771 5767 5764 5761 5757 5752 5749 5745 5741 5736 5731 5727 5723 5720 5717 5716 5718 5719 5720 5721
5794 5794 5794 5793 5794 5796 5795 5795 5795 5793 5793 5792 5791 5791 5790 5789 5787 5784 5784 5781 5779 5776 5777 5776 5774 5771 5769 5765 5762 5758 5756 5752 5747 5743 5739 5736 5731 5726 5722 5718 5716 5713 5712 5713 5714 5715 5716
5783 5784 5785 5786 5787 5787 5786 5787 5786 5786 5786 5784 5783 5782 5781 5781 5779 5777 5776 5774 5771 5768 5767 5767 5766 5764 5761 5758 5755 5751 5748 5744 5741 5736 5733 5729 5726 5720 5716 5713 5711 5709 5708 5708 5708 5709 5711
5773 5775 5775 5776 5777 5777 5778 5778 5778 5778 5777 5776 5775 5775 5773 5771 5771 5768 5767 5766 5764 5761 5757 5758 5758 5755 5754 5750 5748 5745 5740 5738 5733 5729 5725 5722 5719 5715 5711 5708 5706 5705 5703 5703 5702 5702 5705
5763 5764 5765 5766 5766 5767 5768 5769 5768 5769 5769 5768 5767 5765 5765 5762 5760 5758 5758 5757 5756 5754 5749 5750 5748 5745 5743 5742 5740 5739 5735 5730 5726 5722 5719 5715 5712 5708 5705 5703 5700 5701 5698 5697 5697 5696 5698
5752 5754 5755 5755 5756 5756 5757 5758 5758 5759 5759 5758 5757 5756 5755 5753 5752 5750 5747 5746 5747 5744 5738 5742 5740 5737 5735 5732 5732 5730 5728 5723 5719 5716 5711 5707 5705 5702 5698 5695 5693 5693 5692 5690 5689 5689 5690
5739 5741 5743 5743 5745 5746 5746 5746 5747 5748 5747 5746 5745 5745 5745 5743 5742 5739 5737 5737 5737 5732 5735 5733 5731 5728 5724 5723 5722 5720 5718 5714 5711 5708 5705 5700 5697 5694 5691 5688 5686 5686 5686 5683 5681 5680 5682
5725 5727 5729 5730 5731 5734 5734 5734 5735 5735 5735 5734 5733 5733 5731 5731 5730 5730 5728 5728 5723 5723 5724 5721 5720 5717 5715 5715 5713 5710 5708 5705 5703 5700 5697 5692 5689 5686 5683 5680 5679 5677 5677 5677 5673 5672 5674
5712 5713 5715 5717 5718 5720 5721 5722 5723 5723 5723 5721 5721 5720 5719 5718 5719 5718 5717 5716 5713 5714 5714 5710 5709 5707 5706 5704 5703 5700 5698 5696 5695 5692 5690 5684 5681 5677 5674 5671 5671 5669 5669 5668 5666 5665 5663
5700 5701 5702 5704 5707 5707 5708 5709 5710 5710 5710 5710 5708 5708 5708 5707 5704 5704 5703 5703 5702 5703 5701 5699 5697 5696 5695 5694 5692 5689 5686 5686 5684 5683 5680 5676 5672 5669 5667 5663 5662 5660 5660 5659 5657 5656 5655
5685 5688 5690 5691 5693 5695 5696 5696 5696 5696 5696 5696 5694 5693 5696 5693 5692 5689 5689 5690 5691 5690 5688 5686 5686 5684 5683 5682 5679 5677 5674 5674 5671 5671 5669 5666 5664 5662 5659 5656 5653 5652 5651 5650 5649 5648 5647
5673 5673 5675 5678 5679 5680 5681 5682 5684 5682 5684 5682 5681 5678 5680 5680 5678 5675 5678 5679 5677 5677 5676 5673 5672 5672 5670 5669 5667 5665 5664 5660 5660 5658 5657 5656 5653 5653 5650 5648 5646 5644 5643 5640 5638 5640 5638
5657 5661 5661 5663 5665 5666 5667 5667 5669 5671 5671 5670 5665 5666 5663 5665 5662 5663 5663 5663 5662 5663 5663 5660 5659 5659 5658 5655 5653 5652 5650 5649 5647 5646 5644 5644 5641 5642 5641 5640 5638 5635 5634 5631 5629 5630 5629
5639 5643 5648 5649 5650 5651 5652 5653 5654 5655 5657 5657 5653 5652 5651 5649 5650 5650 5649 5648 5648 5647 5647 5646 5645 5644 5643 5640 5638 5638 5637 5636 5633 5632 5631 5631 5631 5632 5632 5628 5627 5626 5626 5622 5620 5621 5621
5623 5626 5630 5634 5634 5636 5638 5637 5638 5640 5643 5642 5641 5639 5639 5636 5639 5637 5636 5635 5634 5633 5632 5632 5631 5630 5628 5626 5624 5624 5624 5623 5620 5619 5618 5619 5620 5621 5621 5620 5617 5616 5617 5613 5613 5614 5612
5605 5610 5613 5617 5620 5621 5622 5622 5623 5625 5626 5626 5626 5626 5626 5625 5624 5622 5621 5622 5619 5616 5616 5614 5615 5614 5613 5611 5610 5611 5609 5609 5608 5608 5606 5606 5606 5608 5609 5608 5607 5607 5608 5606 5605 5605 5604
5587 5591 5597 5600 5603 5603 5605 5606 5606 5606 5611 5611 5611 5611 5611 5612 5612 5611 5609 5607 5605 5602 5600 5601 5600 5600 5600 5598 5596 5596 5595 5595 5595 5595 5595 5594 5595 5595 5596 5598 5597 5597 5599 5596 5596 5596 5595
5568 5572 5578 5583 5585 5587 5588 5588 5588 5591 5594 5596 5596 5596 5596 5597 5596 5600 5597 5596 5594 5592 5591 5587 5585 5585 5587 5585 5584 5584 5583 5583 5584 5585 5583 5584 5584 5584 5585 5586 5586 5589 5587 5587 5586 5584 5584
5551 5555 5561 5566 5568 5570 5570 5572 5572 5573 5578 5579 5579 5579 5581 5581 5582 5584 5584 5584 5583 5580 5580 5576 5574 5574 5573 5573 5571 5571 5571 5573 5574 5573 5573 5573 5573 5573 5573 5576 5578 5577 5575 5577 5576 5575 5575
5535 5539 5544 5550 5551 5553 5554 5555 5555 5558 5562 5563 5561 5563 5567 5567 5569 5568 5569 5569 5571 5568 5568 5568 5565 5563 5562 5561 5560 5560 5561 5561 5563 5564 5564 5563 5563 5563 5563 5565 5566 5566 5565 5565 5565 5564 5565
5520 5523 5527 5531 5533 5535 5538 5539 5541 5542 5546 5547 5547 5550 5552 5553 5554 5555 5556 5557 5557 5557 5557 5557 5555 5554 5553 5551 5550 5552 5553 5553 5552 5553 5555 5553 5553 5553 5552 5552 5555 5556 5554 5553 5554 5558 5555
5506 5508 5512 5514 5518 5520 5522 5524 5527 5528 5530 5532 5532 5535 5539 5539 5539 5542 5543 5543 5545 5546 5546 5545 5544 5543 5542 5543 5543 5543 5542 5543 5542 5543 5544 5544 5542 5544 5542 5540 5542 5545 5543 5541 5542 5543 5543
5492 5495 5498 5500 5502 5504 5506 5509 5511 5514 5516 5519 5520 5522 5524 5527 5529 5530 5530 5531 5532 5533 5533 5532 5533 5531 5530 5531 5532 5532 5533 5533 5533 5533 5533 5534 5534 5533 5532 5530 5530 5530 5529 5528 5528 5529 5530
Wind_Speed
25 28 29 30 31 31 31 31 31 31 31 30 29 29 28 28 28 26 26 27 27 26 27 28 29 30 32 31 31 31 30 29 29 30 29 31 31 29 25 23 30 25 24 23 22 22 23
26 27 30 33 33 34 35 34 34 34 33 33 33 34 34 33 31 31 32 31 30 28 28 28 30 28 31 33 32 32 31 30 30 29 29 30 33 30 26 21 23 25 24 23 21 21 21
29 30 29 31 33 34 37 38 38 38 37 36 36 36 36 36 38 39 37 37 35 34 32 28 28 30 32 35 33 32 31 31 29 28 28 30 33 32 28 22 22 26 25 21 19 21 19
33 33 32 31 32 33 35 37 40 41 40 39 39 38 38 38 41 42 40 39 35 36 33 31 30 32 32 33 31 31 31 32 30 29 28 29 32 31 29 23 22 24 22 18 19 19 19
34 35 35 34 33 33 33 33 34 36 40 42 41 40 39 40 40 43 40 39 40 34 33 32 31 33 34 32 34 33 33 32 30 31 30 30 31 32 28 24 22 20 17 17 18 18 20
33 33 32 33 34 35 34 33 34 35 36 36 38 40 41 40 39 41 42 38 37 36 34 33 32 35 32 32 35 36 36 33 32 32 31 31 30 31 31 25 20 18 19 18 17 16 18
34 33 32 34 33 35 36 36 35 36 37 38 39 40 40 39 41 42 42 40 37 36 35 35 36 35 34 35 34 35 35 35 34 33 33 32 31 31 30 27 21 17 17 17 19 20 22
36 37 36 35 36 36 36 37 37 36 36 37 38 40 41 42 43 44 42 40 41 39 37 37 37 36 38 35 34 35 37 37 34 34 33 33 33 30 30 28 24 18 18 19 23 24 24
39 38 37 38 38 38 38 38 38 38 41 41 42 43 43 43 44 45 44 44 41 40 40 38 36 37 37 38 37 37 35 35 34 33 33 34 34 31 29 29 25 21 19 22 26 26 25
44 42 40 40 39 39 40 41 42 43 44 45 45 45 44 44 44 43 43 42 42 43 44 41 39 36 39 40 40 38 36 34 36 34 33 34 35 31 30 29 26 23 22 25 29 31 30
50 47 45 43 43 44 44 44 43 44 46 48 49 47 45 44 46 46 44 44 43 46 48 43 45 43 43 40 40 41 40 39 37 36 36 36 35 31 29 27 28 24 25 28 32 35 36
53 52 52 50 47 46 46 46 46 46 47 49 50 50 48 47 47 49 48 46 44 48 53 46 45 45 45 44 43 44 44 42 41 39 38 38 38 32 30 28 26 26 26 30 34 38 40
60 58 55 54 55 53 49 48 48 48 48 48 49 50 50 50 49 50 51 49 47 50 49 50 48 47 48 47 44 44 46 44 42 41 40 41 38 33 30 29 28 28 28 31 36 39 41
57 61 61 58 58 56 54 53 50 49 50 50 50 50 52 52 50 51 53 52 53 51 49 51 50 50 50 50 46 45 45 44 42 42 42 40 39 36 33 30 28 28 28 31 37 38 39
49 52 53 57 57 55 56 55 52 51 47 48 49 53 54 53 53 52 54 54 56 54 51 52 52 52 50 50 50 49 46 45 42 42 43 42 41 38 34 31 30 28 29 31 35 37 40
48 47 46 50 52 56 56 54 54 53 50 53 54 53 55 55 56 57 58 56 58 56 56 55 55 55 53 51 52 52 48 47 44 44 44 43 42 39 35 32 30 30 30 31 33 37 40
50 50 50 50 48 55 50 41 51 52 57 57 57 52 55 58 60 61 61 59 59 59 60 59 58 58 55 53 53 50 51 48 47 46 46 45 43 40 37 33 32 30 28 31 33 35 38
54 52 51 54 50 51 58 46 48 53 51 54 59 51 51 56 64 66 65 65 65 63 63 63 62 59 57 57 56 54 52 51 49 48 46 45 45 40 37 34 32 31 30 32 34 35 37
58 58 54 55 56 54 51 50 51 52 49 54 55 54 49 53 61 62 60 63 67 70 68 69 67 65 64 65 61 59 56 52 48 47 46 43 46 41 39 36 35 35 31 33 34 36 35
61 60 59 58 58 58 55 53 53 52 55 56 54 52 52 54 59 58 57 59 63 65 65 67 69 65 65 64 59 57 55 52 47 46 43 44 43 38 36 38 37 34 32 34 35 35 32
64 62 62 61 60 60 60 56 54 54 52 51 55 56 59 55 57 57 55 57 60 64 65 64 64 63 61 58 55 55 54 52 47 45 42 42 40 37 35 36 38 37 34 36 36 31 33
66 65 64 63 62 62 62 61 60 56 55 52 56 54 61 55 56 56 57 56 59 59 60 60 60 58 58 56 55 55 54 50 48 44 40 40 40 36 37 37 38 37 34 34 34 33 34
68 68 68 66 65 64 65 63 62 59 57 57 57 55 58 56 53 53 51 51 49 49 49 51 53 56 57 55 54 53 52 49 47 43 40 39 36 36 38 36 37 35 31 33 35 34 36
68 69 68 67 64 63 64 64 62 60 59 59 57 57 58 61 58 55 51 46 38 43 47 49 50 52 53 55 54 53 51 47 42 40 40 38 36 37 37 35 35 33 32 34 35 35 37
66 65 65 64 61 61 61 62 62 62 60 57 59 58 59 62 61 60 61 59 59 58 50 50 49 51 52 52 50 47 46 44 40 38 37 35 35 35 36 35 33 32 33 35 35 35 36
60 59 58 56 59 59 61 62 62 63 60 57 59 56 51 57 57 56 57 50 48 41 44 47 49 49 47 47 46 42 39 37 37 35 33 33 32 33 35 34 34 33 35 37 36 37 37
54 54 54 53 56 58 60 61 60 57 56 54 54 50 55 57 57 53 50 51 47 42 42 42 39 41 45 44 41 38 36 35 35 33 31 31 31 33 35 37 36 35 37 37 36 37 38
51 52 53 55 56 57 59 57 56 53 52 52 53 53 57 59 59 56 54 49 48 46 47 41 41 38 37 38 38 35 35 34 33 31 29 30 33 33 37 40 41 38 39 41 40 39 41
45 47 48 50 51 52 53 52 50 50 50 49 49 55 55 52 53 53 48 47 43 48 44 43 39 35 33 33 33 33 31 29 28 29 31 34 36 39 41 42 42 42 42 43 43 42 42
Wind_Direction
259 258 259 259 259 258 260 264 270 277 283 288 293 300 305 309 317 321 324 327 329 328 325 326 331 333 333 336 336 338 338 338 339 338 333 327 322 329 327 308 296 298 290 287 284 275 269
264 261 261 262 263 264 266 267 269 274 280 287 293 297 303 305 310 313 319 320 322 321 321 323 328 332 332 332 333 333 334 333 336 334 329 328 320 326 332 316 297 292 289 282 283 277 266
268 266 265 266 266 267 266 267 270 273 277 283 289 293 298 303 308 310 315 318 321 324 322 321 326 328 331 330 330 330 330 330 333 331 329 325 321 322 329 324 298 291 294 281 282 276 264
265 270 271 268 272 275 275 278 278 278 280 282 286 291 296 299 304 307 312 314 317 317 320 322 327 327 328 330 325 327 328 330 329 329 329 327 321 319 326 326 310 296 294 278 275 273 256
258 260 264 269 269 268 273 276 280 282 282 285 287 289 292 296 300 304 311 312 312 312 314 317 322 324 327 327 324 323 325 326 325 325 326 325 320 315 318 324 320 302 281 262 268 273 256
257 260 266 268 268 270 271 274 276 279 282 285 287 289 291 295 298 300 304 308 307 308 309 315 319 319 322 323 323 322 322 323 322 322 323 321 316 311 314 319 319 302 277 256 260 265 258
257 257 259 264 269 269 269 270 273 276 280 281 284 287 289 291 293 297 300 304 306 308 309 311 314 317 316 319 319 320 321 320 319 320 321 320 315 309 307 312 314 294 272 252 251 257 257
261 261 260 258 261 265 268 271 272 275 278 280 284 286 288 289 292 294 297 297 303 305 306 309 311 313 315 315 315 319 319 317 316 316 319 319 315 308 301 306 307 295 269 243 244 254 253
263 263 262 265 267 266 267 268 270 274 277 279 281 285 288 288 289 294 296 296 296 297 302 305 307 308 311 312 312 315 314 313 312 314 316 317 314 304 299 301 299 293 268 248 244 249 253
261 262 265 266 269 272 272 272 273 274 276 277 280 283 285 287 289 291 295 295 296 297 299 305 305 304 309 309 313 312 312 310 308 309 312 313 310 302 297 297 295 291 272 251 245 246 249
263 262 263 265 268 270 270 272 273 275 278 279 281 284 285 285 287 289 293 292 294 296 296 303 304 303 305 308 312 312 310 310 307 308 309 309 306 300 295 294 293 284 272 259 251 249 248
263 265 267 266 268 268 270 271 271 273 275 278 280 282 283 284 286 289 290 290 291 291 293 298 299 299 301 302 308 310 308 308 306 306 306 305 303 297 291 292 291 283 276 266 257 254 252
264 265 265 266 268 268 267 270 272 273 276 279 281 281 281 283 286 286 287 288 287 285 293 295 295 295 295 300 303 305 306 305 302 303 302 302 301 295 289 289 289 284 278 269 264 260 260
266 265 264 265 266 265 265 266 268 272 274 277 279 280 281 282 283 284 284 285 283 287 292 291 290 290 294 297 299 302 303 303 298 297 296 296 298 294 287 287 288 285 278 273 272 269 265
270 268 267 265 262 263 264 264 268 271 273 276 276 276 278 280 281 279 279 282 285 287 289 285 285 288 292 296 297 300 301 297 296 294 293 293 294 290 284 284 288 286 282 277 274 273 272
270 274 273 270 274 263 262 265 267 267 268 273 274 271 273 275 274 272 275 281 283 284 283 283 282 284 288 291 295 298 297 298 294 290 290 289 289 287 282 281 282 283 285 279 275 274 274
260 261 264 269 273 270 266 274 271 270 265 266 265 268 272 274 273 273 274 276 280 278 280 281 282 285 287 288 290 290 292 292 288 287 287 286 286 285 280 278 279 283 284 280 277 278 279
262 263 265 265 267 267 273 275 274 269 270 270 270 271 274 273 273 271 273 277 277 278 279 281 282 284 286 288 288 287 287 284 285 284 283 283 285 281 277 278 278 280 280 280 280 281 280
262 265 263 267 268 267 264 262 266 268 266 273 277 277 278 273 270 274 277 277 276 276 276 278 280 281 284 284 283 283 283 280 279 279 279 281 281 280 278 278 279 278 276 278 279 280 282
262 262 262 259 262 266 267 266 263 262 263 264 270 275 277 276 272 275 278 275 275 275 275 279 277 278 280 280 279 279 278 275 274 273 275 278 278 279 277 277 277 277 275 276 278 280 284
259 258 257 258 259 263 265 265 265 265 264 267 264 262 265 272 276 278 279 280 280 278 278 279 280 280 277 275 273 272 271 269 268 268 271 274 276 275 273 272 274 274 274 276 280 283 282
258 258 258 258 258 259 259 261 265 266 265 263 264 261 264 271 271 274 276 279 278 278 277 277 277 274 270 268 267 266 266 265 265 266 268 269 271 272 270 269 271 272 272 274 280 280 280
257 257 257 258 258 258 260 261 262 263 264 262 264 264 265 268 270 273 275 278 277 277 275 275 273 269 268 265 263 263 263 260 263 264 265 267 269 268 267 266 269 273 273 271 272 276 276
255 255 257 258 258 259 260 261 262 262 261 261 261 260 258 265 264 267 275 274 271 283 277 274 268 265 268 268 268 264 261 261 261 264 268 270 268 268 269 267 265 270 272 274 275 273 273
255 255 256 257 257 256 258 259 259 260 260 259 259 258 257 260 262 263 266 271 278 284 280 278 275 272 272 272 268 266 265 263 264 263 267 268 269 268 268 267 270 273 273 272 273 273 272
255 256 257 255 254 254 256 257 259 260 260 256 254 255 255 256 261 264 266 273 275 273 277 279 281 279 274 269 268 265 262 264 267 269 268 269 269 268 271 271 271 270 269 270 271 273 273
254 255 254 253 252 253 256 259 260 259 258 254 254 244 250 253 259 260 262 271 271 274 275 278 281 284 280 274 268 267 266 268 269 269 268 267 269 272 272 275 276 274 273 272 269 272 270
254 255 255 255 254 254 256 257 257 255 255 253 254 247 244 251 256 255 264 269 265 272 269 271 274 277 278 275 271 271 272 272 272 272 270 270 271 274 271 270 273 278 273 271 273 269 267
252 254 255 255 255 254 254 254 254 254 254 253 251 248 250 252 258 262 267 267 267 269 271 265 274 272 272 270 269 268 268 267 271 272 272 272 272 272 271 273 275 275 273 272 270 267 266